Time,TemperatureF,DewpointF,PressureIn,WindDirection,WindDirectionDegrees,WindSpeedMPH,WindSpeedGustMPH,Humidity,HourlyPrecipIn,Conditions,Clouds,dailyrainin,SoftwareType,DateUTC
2013-01-20 00:05:00,29.1,26.5,29.84,SSE,148,0.0,0.0,90,0.00,CLR,,0.00,WeatherDisplay:10.37,2013-01-20 05:05:00,
2013-01-20 00:10:00,29.2,26.6,29.84,SSE,148,0.0,0.0,90,0.00,CLR,,0.00,WeatherDisplay:10.37,2013-01-20 05:10:00,
2013-01-20 00:15:00,29.2,26.4,29.84,SSE,148,0.0,0.0,89,0.00,CLR,,0.00,WeatherDisplay:10.37,2013-01-20 05:15:00,
2013-01-20 00:20:00,29.2,26.6,29.83,SSE,148,0.0,0.0,90,0.00,BKN,,0.00,WeatherDisplay:10.37,2013-01-20 05:20:00,
2013-01-20 00:25:00,29.3,26.7,29.83,SSE,148,0.0,0.0,90,0.00,BKN,,0.00,WeatherDisplay:10.37,2013-01-20 05:25:00,
2013-01-20 00:30:00,29.4,26.8,29.82,SSE,148,0.0,0.0,90,0.00,BKN,,0.00,WeatherDisplay:10.37,2013-01-20 05:30:00,
2013-01-20 00:40:00,29.7,27.1,29.82,SSE,148,0.0,0.0,90,0.00,BKN,,0.00,WeatherDisplay:10.37,2013-01-20 05:40:00,
2013-01-20 00:45:00,29.8,27.2,29.81,SSE,148,0.0,0.0,90,0.00,BKN,,0.00,WeatherDisplay:10.37,2013-01-20 05:45:00,
2013-01-20 00:50:00,30.1,27.8,29.81,SSE,149,0.0,3.0,91,0.00,BKN,,0.00,WeatherDisplay:10.37,2013-01-20 05:50:00,
2013-01-20 00:55:00,30.5,28.2,29.81,SSE,150,0.0,1.0,91,0.00,BKN,,0.00,WeatherDisplay:10.37,2013-01-20 05:55:00,
2013-01-20 01:00:00,30.9,28.3,29.81,South,186,0.0,0.0,90,0.00,BKN,,0.00,WeatherDisplay:10.37,2013-01-20 06:00:00,
2013-01-20 01:10:00,31.9,29.3,29.81,SSE,155,0.0,4.0,90,0.00,BKN,,0.00,WeatherDisplay:10.37,2013-01-20 06:10:00,
2013-01-20 01:15:00,32.5,29.8,29.81,SSE,149,0.0,0.0,90,0.00,BKN,,0.00,WeatherDisplay:10.37,2013-01-20 06:15:00,
2013-01-20 01:20:00,33.0,30.1,29.80,SSE,150,0.0,3.0,89,0.00,OVC,,0.00,WeatherDisplay:10.37,2013-01-20 06:20:00,
2013-01-20 01:25:00,33.6,30.7,29.80,South,174,0.0,4.0,89,0.00,OVC,,0.00,WeatherDisplay:10.37,2013-01-20 06:25:00,
2013-01-20 01:30:00,34.3,31.1,29.80,South,185,0.0,1.0,88,0.00,OVC,,0.00,WeatherDisplay:10.37,2013-01-20 06:30:00,
2013-01-20 01:35:00,35.0,31.2,29.80,SE,134,0.0,0.0,86,0.00,OVC,,0.00,WeatherDisplay:10.37,2013-01-20 06:35:00,
2013-01-20 01:45:00,35.7,31.4,29.80,South,170,0.0,0.0,84,0.00,OVC,,0.00,WeatherDisplay:10.37,2013-01-20 06:45:00,
2013-01-20 01:50:00,36.0,31.4,29.80,South,180,0.0,0.0,83,0.00,OVC,,0.00,WeatherDisplay:10.37,2013-01-20 06:50:00,
2013-01-20 01:55:00,36.2,31.6,29.80,South,184,0.0,1.0,83,0.00,OVC,,0.00,WeatherDisplay:10.37,2013-01-20 06:55:00,
2013-01-20 02:00:00,36.5,31.5,29.80,SE,126,0.0,0.0,82,0.00,OVC,,0.00,WeatherDisplay:10.37,2013-01-20 07:00:00,
2013-01-20 02:05:00,36.7,31.7,29.80,East,94,0.0,0.0,82,0.00,OVC,,0.00,WeatherDisplay:10.37,2013-01-20 07:05:00,
2013-01-20 02:10:00,36.8,31.5,29.79,East,92,0.0,0.0,81,0.00,OVC,,0.00,WeatherDisplay:10.37,2013-01-20 07:10:00,
2013-01-20 02:15:00,36.8,31.5,29.79,SE,134,0.0,0.0,81,0.00,OVC,,0.00,WeatherDisplay:10.37,2013-01-20 07:15:00,
2013-01-20 02:20:00,36.9,31.6,29.78,SSE,166,0.0,4.0,81,0.00,OVC,,0.00,WeatherDisplay:10.37,2013-01-20 07:20:00,
2013-01-20 02:25:00,37.0,31.7,29.78,SSE,168,0.0,0.0,81,0.00,OVC,,0.00,WeatherDisplay:10.37,2013-01-20 07:25:00,
2013-01-20 02:30:00,36.9,31.6,29.78,South,177,0.0,0.0,81,0.00,OVC,,0.00,WeatherDisplay:10.37,2013-01-20 07:30:00,
2013-01-20 02:35:00,36.8,31.5,29.78,South,187,0.0,1.0,81,0.00,OVC,,0.00,WeatherDisplay:10.37,2013-01-20 07:35:00,
2013-01-20 02:40:00,36.8,31.5,29.77,South,189,0.0,0.0,81,0.00,OVC,,0.00,WeatherDisplay:10.37,2013-01-20 07:40:00,
2013-01-20 02:45:00,36.8,31.5,29.77,South,184,0.0,0.0,81,0.00,OVC,,0.00,WeatherDisplay:10.37,2013-01-20 07:45:00,
2013-01-20 02:50:00,36.8,31.5,29.76,South,179,0.0,4.0,81,0.00,OVC,,0.00,WeatherDisplay:10.37,2013-01-20 07:50:00,
2013-01-20 02:55:00,36.8,31.5,29.76,South,178,0.0,2.0,81,0.00,OVC,,0.00,WeatherDisplay:10.37,2013-01-20 07:55:00,
2013-01-20 03:00:00,37.0,31.7,29.75,South,182,1.0,8.0,81,0.00,OVC,,0.00,WeatherDisplay:10.37,2013-01-20 08:00:00,
2013-01-20 03:05:00,37.1,31.8,29.75,South,173,0.0,2.0,81,0.00,OVC,,0.00,WeatherDisplay:10.37,2013-01-20 08:05:00,
2013-01-20 03:10:00,37.2,31.9,29.74,SSE,158,1.0,7.0,81,0.00,OVC,,0.00,WeatherDisplay:10.37,2013-01-20 08:10:00,
2013-01-20 03:15:00,37.3,31.7,29.75,SSE,164,0.0,3.0,80,0.00,OVC,,0.00,WeatherDisplay:10.37,2013-01-20 08:15:00,
2013-01-20 03:20:00,37.3,31.7,29.74,South,176,2.0,5.0,80,0.00,OVC,,0.00,WeatherDisplay:10.37,2013-01-20 08:20:00,
2013-01-20 03:25:00,37.4,31.8,29.74,South,187,0.0,5.0,80,0.00,OVC,,0.00,WeatherDisplay:10.37,2013-01-20 08:25:00,
2013-01-20 03:30:00,37.4,31.8,29.74,SSW,199,0.0,2.0,80,0.00,OVC,,0.00,WeatherDisplay:10.37,2013-01-20 08:30:00,
2013-01-20 03:35:00,37.3,31.7,29.73,South,180,0.0,2.0,80,0.00,OVC,,0.00,WeatherDisplay:10.37,2013-01-20 08:35:00,
2013-01-20 03:40:00,37.3,31.7,29.73,South,173,0.0,3.0,80,0.00,OVC,,0.00,WeatherDisplay:10.37,2013-01-20 08:40:00,
2013-01-20 03:45:00,37.2,31.6,29.73,South,185,0.0,0.0,80,0.00,OVC,,0.00,WeatherDisplay:10.37,2013-01-20 08:45:00,
2013-01-20 03:50:00,37.1,31.5,29.72,South,178,0.0,0.0,80,0.00,OVC,,0.00,WeatherDisplay:10.37,2013-01-20 08:50:00,
2013-01-20 03:55:00,37.1,31.5,29.72,South,175,0.0,5.0,80,0.00,OVC,,0.00,WeatherDisplay:10.37,2013-01-20 08:55:00,
2013-01-20 04:00:00,37.2,31.6,29.72,South,174,1.0,5.0,80,0.00,OVC,,0.00,WeatherDisplay:10.37,2013-01-20 09:00:00,
2013-01-20 04:05:00,37.3,31.4,29.72,South,174,0.0,5.0,79,0.00,OVC,,0.00,WeatherDisplay:10.37,2013-01-20 09:05:00,
2013-01-20 04:10:00,37.3,31.4,29.71,SSE,166,0.0,3.0,79,0.00,OVC,,0.00,WeatherDisplay:10.37,2013-01-20 09:10:00,
2013-01-20 04:15:00,37.2,31.3,29.71,SE,146,0.0,1.0,79,0.00,OVC,,0.00,WeatherDisplay:10.37,2013-01-20 09:15:00,
2013-01-20 04:20:00,36.9,31.0,29.71,SE,144,0.0,0.0,79,0.00,FEW,,0.00,WeatherDisplay:10.37,2013-01-20 09:20:00,
2013-01-20 04:25:00,36.7,31.1,29.70,SE,145,0.0,2.0,80,0.00,FEW,,0.00,WeatherDisplay:10.37,2013-01-20 09:25:00,
2013-01-20 04:30:00,36.4,30.8,29.70,SSE,161,0.0,3.0,80,0.00,FEW,,0.00,WeatherDisplay:10.37,2013-01-20 09:30:00,
2013-01-20 04:35:00,36.1,30.8,29.70,South,179,0.0,1.0,81,0.00,FEW,,0.00,WeatherDisplay:10.37,2013-01-20 09:35:00,
2013-01-20 04:40:00,35.9,30.6,29.70,South,180,0.0,5.0,81,0.00,FEW,,0.00,WeatherDisplay:10.37,2013-01-20 09:40:00,
2013-01-20 04:45:00,35.5,30.6,29.69,South,174,0.0,4.0,82,0.00,FEW,,0.00,WeatherDisplay:10.37,2013-01-20 09:45:00,
2013-01-20 04:50:00,35.3,30.4,29.69,SSE,161,0.0,3.0,82,0.00,FEW,,0.00,WeatherDisplay:10.37,2013-01-20 09:50:00,
2013-01-20 04:55:00,35.2,30.6,29.69,SE,140,0.0,4.0,83,0.00,FEW,,0.00,WeatherDisplay:10.37,2013-01-20 09:55:00,
2013-01-20 05:00:00,35.1,30.5,29.69,ESE,117,0.0,0.0,83,0.00,FEW,,0.00,WeatherDisplay:10.37,2013-01-20 10:00:00,
2013-01-20 05:05:00,35.0,30.4,29.68,ESE,110,0.0,0.0,83,0.00,FEW,,0.00,WeatherDisplay:10.37,2013-01-20 10:05:00,
2013-01-20 05:10:00,34.9,30.2,29.68,ESE,112,0.0,1.0,83,0.00,FEW,,0.00,WeatherDisplay:10.37,2013-01-20 10:10:00,
2013-01-20 05:15:00,34.7,30.1,29.68,ESE,120,0.0,1.0,83,0.00,FEW,,0.00,WeatherDisplay:10.37,2013-01-20 10:15:00,
2013-01-20 05:20:00,34.6,30.3,29.67,SE,145,0.0,0.0,84,0.00,CLR,,0.00,WeatherDisplay:10.37,2013-01-20 10:20:00,
2013-01-20 05:25:00,34.4,30.1,29.66,SE,146,0.0,0.0,84,0.00,CLR,,0.00,WeatherDisplay:10.37,2013-01-20 10:25:00,
2013-01-20 05:30:00,34.2,30.2,29.65,SSE,156,0.0,0.0,85,0.00,CLR,,0.00,WeatherDisplay:10.37,2013-01-20 10:30:00,
2013-01-20 05:35:00,34.1,30.1,29.65,SSE,164,0.0,2.0,85,0.00,CLR,,0.00,WeatherDisplay:10.37,2013-01-20 10:35:00,
2013-01-20 05:40:00,34.0,30.0,29.65,SSE,165,0.0,2.0,85,0.00,CLR,,0.00,WeatherDisplay:10.37,2013-01-20 10:40:00,
2013-01-20 05:45:00,33.8,29.8,29.65,SSE,164,0.0,0.0,85,0.00,CLR,,0.00,WeatherDisplay:10.37,2013-01-20 10:45:00,
2013-01-20 05:50:00,33.7,29.7,29.64,SSE,164,0.0,0.0,85,0.00,CLR,,0.00,WeatherDisplay:10.37,2013-01-20 10:50:00,
2013-01-20 05:55:00,33.6,29.6,29.64,ESE,123,0.0,0.0,85,0.00,CLR,,0.00,WeatherDisplay:10.37,2013-01-20 10:55:00,
2013-01-20 06:00:00,33.5,29.8,29.64,ESE,102,0.0,2.0,86,0.00,CLR,,0.00,WeatherDisplay:10.37,2013-01-20 11:00:00,
2013-01-20 06:05:00,33.4,29.7,29.63,SE,138,0.0,6.0,86,0.00,CLR,,0.00,WeatherDisplay:10.37,2013-01-20 11:05:00,
2013-01-20 06:10:00,33.5,29.5,29.63,South,175,0.0,3.0,85,0.00,CLR,,0.00,WeatherDisplay:10.37,2013-01-20 11:10:00,
2013-01-20 06:15:00,33.5,29.7,29.63,South,174,0.0,0.0,86,0.00,CLR,,0.00,WeatherDisplay:10.37,2013-01-20 11:15:00,
2013-01-20 06:20:00,33.5,29.5,29.62,SSE,168,0.0,1.0,85,0.00,CLR,,0.00,WeatherDisplay:10.37,2013-01-20 11:20:00,
2013-01-20 06:25:00,33.7,29.7,29.62,South,171,0.0,1.0,85,0.00,CLR,,0.00,WeatherDisplay:10.37,2013-01-20 11:25:00,
2013-01-20 06:30:00,33.9,29.9,29.62,South,177,0.0,2.0,85,0.00,CLR,,0.00,WeatherDisplay:10.37,2013-01-20 11:30:00,
2013-01-20 06:35:00,34.1,30.1,29.62,South,189,0.0,4.0,85,0.00,CLR,,0.00,WeatherDisplay:10.37,2013-01-20 11:35:00,
2013-01-20 06:40:00,34.4,30.1,29.61,SSW,194,1.0,4.0,84,0.00,CLR,,0.00,WeatherDisplay:10.37,2013-01-20 11:40:00,
2013-01-20 06:45:00,34.7,30.4,29.61,South,191,0.0,2.0,84,0.00,CLR,,0.00,WeatherDisplay:10.37,2013-01-20 11:45:00,
2013-01-20 06:50:00,35.0,30.3,29.61,South,172,0.0,3.0,83,0.00,CLR,,0.00,WeatherDisplay:10.37,2013-01-20 11:50:00,
2013-01-20 07:00:00,35.3,30.4,29.61,South,183,0.0,2.0,82,0.00,CLR,,0.00,WeatherDisplay:10.37,2013-01-20 12:00:00,
2013-01-20 07:05:00,35.4,30.4,29.61,South,175,0.0,4.0,82,0.00,CLR,,0.00,WeatherDisplay:10.37,2013-01-20 12:05:00,
2013-01-20 07:10:00,35.5,30.5,29.60,SSE,166,0.0,4.0,82,0.00,CLR,,0.00,WeatherDisplay:10.37,2013-01-20 12:10:00,
2013-01-20 07:15:00,35.7,30.5,29.60,South,174,0.0,8.0,81,0.00,CLR,,0.00,WeatherDisplay:10.37,2013-01-20 12:15:00,
2013-01-20 07:20:00,35.9,30.6,29.60,South,176,0.0,6.0,81,0.00,CLR,,0.00,WeatherDisplay:10.37,2013-01-20 12:20:00,
2013-01-20 07:25:00,35.8,30.5,29.59,South,180,1.0,5.0,81,0.00,CLR,,0.00,WeatherDisplay:10.37,2013-01-20 12:25:00,
2013-01-20 07:30:00,35.8,30.5,29.59,South,176,1.0,6.0,81,0.00,CLR,,0.00,WeatherDisplay:10.37,2013-01-20 12:30:00,
2013-01-20 07:35:00,35.9,30.6,29.58,SSE,162,0.0,2.0,81,0.00,CLR,,0.00,WeatherDisplay:10.37,2013-01-20 12:35:00,
2013-01-20 07:40:00,36.0,30.7,29.58,SSE,164,1.0,5.0,81,0.00,CLR,,0.00,WeatherDisplay:10.37,2013-01-20 12:40:00,
2013-01-20 07:45:00,36.0,30.4,29.58,South,171,0.0,4.0,80,0.00,CLR,,0.00,WeatherDisplay:10.37,2013-01-20 12:45:00,
2013-01-20 07:50:00,36.1,30.5,29.58,South,178,0.0,3.0,80,0.00,CLR,,0.00,WeatherDisplay:10.37,2013-01-20 12:50:00,
2013-01-20 07:55:00,36.3,30.7,29.58,South,174,2.0,6.0,80,0.00,CLR,,0.00,WeatherDisplay:10.37,2013-01-20 12:55:00,
2013-01-20 08:00:00,36.4,30.5,29.58,South,174,1.0,5.0,79,0.00,CLR,,0.00,WeatherDisplay:10.37,2013-01-20 13:00:00,
2013-01-20 08:05:00,36.6,30.7,29.58,South,179,1.0,4.0,79,0.00,CLR,,0.00,WeatherDisplay:10.37,2013-01-20 13:05:00,
2013-01-20 08:15:00,37.2,31.0,29.58,SSW,193,2.0,9.0,78,0.00,CLR,,0.00,WeatherDisplay:10.37,2013-01-20 13:15:00,
2013-01-20 08:20:00,37.5,31.0,29.58,South,187,1.0,7.0,77,0.00,CLR,,0.00,WeatherDisplay:10.37,2013-01-20 13:20:00,
2013-01-20 08:25:00,38.0,31.1,29.58,South,179,1.0,8.0,76,0.00,CLR,,0.00,WeatherDisplay:10.37,2013-01-20 13:25:00,
2013-01-20 08:35:00,39.0,31.1,29.58,SSW,200,5.0,8.0,73,0.00,CLR,,0.00,WeatherDisplay:10.37,2013-01-20 13:35:00,
2013-01-20 08:40:00,39.4,31.1,29.58,South,191,2.0,5.0,72,0.00,CLR,,0.00,WeatherDisplay:10.37,2013-01-20 13:40:00,
2013-01-20 08:45:00,39.6,31.3,29.58,South,191,5.0,10.0,72,0.00,CLR,,0.00,WeatherDisplay:10.37,2013-01-20 13:45:00,
2013-01-20 08:50:00,40.2,31.2,29.58,SSW,193,1.0,5.0,70,0.00,CLR,,0.00,WeatherDisplay:10.37,2013-01-20 13:50:00,
2013-01-20 08:55:00,40.5,31.5,29.57,South,191,2.0,5.0,70,0.00,CLR,,0.00,WeatherDisplay:10.37,2013-01-20 13:55:00,
2013-01-20 09:00:00,40.7,31.3,29.57,South,181,3.0,7.0,69,0.00,CLR,,0.00,WeatherDisplay:10.37,2013-01-20 14:00:00,
2013-01-20 09:05:00,41.1,31.3,29.57,South,189,1.0,9.0,68,0.00,CLR,,0.00,WeatherDisplay:10.37,2013-01-20 14:05:00,
2013-01-20 09:10:00,41.4,31.6,29.57,SSW,196,3.0,8.0,68,0.00,CLR,,0.00,WeatherDisplay:10.37,2013-01-20 14:10:00,
2013-01-20 09:15:00,41.6,31.5,29.57,SSW,197,3.0,8.0,67,0.00,CLR,,0.00,WeatherDisplay:10.37,2013-01-20 14:15:00,
2013-01-20 09:20:00,41.9,31.4,29.57,SSW,199,2.0,8.0,66,0.00,CLR,,0.00,WeatherDisplay:10.37,2013-01-20 14:20:00,
2013-01-20 09:25:00,42.4,31.0,29.57,SSW,198,1.0,7.0,64,0.00,CLR,,0.00,WeatherDisplay:10.37,2013-01-20 14:25:00,
2013-01-20 09:30:00,42.7,31.4,29.57,SSW,194,3.0,5.0,64,0.00,CLR,,0.00,WeatherDisplay:10.37,2013-01-20 14:30:00,
2013-01-20 09:35:00,43.1,31.0,29.57,SSW,194,1.0,6.0,62,0.00,CLR,,0.00,WeatherDisplay:10.37,2013-01-20 14:35:00,
2013-01-20 09:40:00,43.3,31.9,29.57,SSW,202,1.0,6.0,64,0.00,CLR,,0.00,WeatherDisplay:10.37,2013-01-20 14:40:00,
2013-01-20 09:45:00,43.4,31.3,29.56,SSW,197,1.0,4.0,62,0.00,CLR,,0.00,WeatherDisplay:10.37,2013-01-20 14:45:00,
2013-01-20 09:50:00,43.7,31.5,29.56,South,170,1.0,8.0,62,0.00,CLR,,0.00,WeatherDisplay:10.37,2013-01-20 14:50:00,
2013-01-20 09:55:00,44.2,31.1,29.55,SSW,198,3.0,10.0,60,0.00,CLR,,0.00,WeatherDisplay:10.37,2013-01-20 14:55:00,
2013-01-20 10:00:00,44.6,30.7,29.55,SSW,202,1.0,10.0,58,0.00,CLR,,0.00,WeatherDisplay:10.37,2013-01-20 15:00:00,
2013-01-20 10:05:00,44.7,30.8,29.56,SSW,203,1.0,8.0,58,0.00,CLR,,0.00,WeatherDisplay:10.37,2013-01-20 15:05:00,
2013-01-20 10:10:00,44.7,30.4,29.56,SSW,204,5.0,8.0,57,0.00,CLR,,0.00,WeatherDisplay:10.37,2013-01-20 15:10:00,
2013-01-20 10:15:00,45.1,30.8,29.55,SSW,198,5.0,10.0,57,0.00,CLR,,0.00,WeatherDisplay:10.37,2013-01-20 15:15:00,
2013-01-20 10:20:00,45.2,30.4,29.55,SSW,198,3.0,9.0,56,0.00,CLR,,0.00,WeatherDisplay:10.37,2013-01-20 15:20:00,
2013-01-20 10:25:00,45.6,30.3,29.54,SSW,205,5.0,10.0,55,0.00,CLR,,0.00,WeatherDisplay:10.37,2013-01-20 15:25:00,
2013-01-20 10:30:00,45.9,31.1,29.54,SSW,196,1.0,10.0,56,0.00,CLR,,0.00,WeatherDisplay:10.37,2013-01-20 15:30:00,
2013-01-20 10:35:00,45.9,31.1,29.54,South,177,2.0,7.0,56,0.00,CLR,,0.00,WeatherDisplay:10.37,2013-01-20 15:35:00,
2013-01-20 10:40:00,45.8,30.6,29.53,SSW,197,3.0,13.0,55,0.00,CLR,,0.00,WeatherDisplay:10.37,2013-01-20 15:40:00,
2013-01-20 10:45:00,46.3,30.5,29.53,SSW,201,2.0,13.0,54,0.00,CLR,,0.00,WeatherDisplay:10.37,2013-01-20 15:45:00,
2013-01-20 10:50:00,46.6,30.8,29.52,SSW,203,5.0,9.0,54,0.00,CLR,,0.00,WeatherDisplay:10.37,2013-01-20 15:50:00,
2013-01-20 10:55:00,47.0,30.8,29.52,SSW,209,5.0,9.0,53,0.00,CLR,,0.00,WeatherDisplay:10.37,2013-01-20 15:55:00,
2013-01-20 11:00:00,47.4,31.1,29.52,SSW,204,3.0,7.0,53,0.00,CLR,,0.00,WeatherDisplay:10.37,2013-01-20 16:00:00,
2013-01-20 11:05:00,47.8,31.0,29.52,SSW,193,5.0,9.0,52,0.00,CLR,,0.00,WeatherDisplay:10.37,2013-01-20 16:05:00,
2013-01-20 11:10:00,48.0,30.7,29.52,South,182,2.0,8.0,51,0.00,CLR,,0.00,WeatherDisplay:10.37,2013-01-20 16:10:00,
2013-01-20 11:15:00,48.2,30.9,29.51,SSW,206,1.0,12.0,51,0.00,CLR,,0.00,WeatherDisplay:10.37,2013-01-20 16:15:00,
2013-01-20 11:20:00,48.6,30.8,29.51,SW,221,2.0,9.0,50,0.00,CLR,,0.00,WeatherDisplay:10.37,2013-01-20 16:20:00,
2013-01-20 11:25:00,49.0,30.2,29.51,SW,224,6.0,21.0,48,0.00,CLR,,0.00,WeatherDisplay:10.37,2013-01-20 16:25:00,
2013-01-20 11:30:00,49.3,30.4,29.51,SW,224,3.0,10.0,48,0.00,CLR,,0.00,WeatherDisplay:10.37,2013-01-20 16:30:00,
2013-01-20 11:40:00,49.5,30.1,29.50,SW,234,5.0,14.0,47,0.00,CLR,,0.00,WeatherDisplay:10.37,2013-01-20 16:40:00,
2013-01-20 11:45:00,49.6,29.6,29.51,SW,216,6.0,12.0,46,0.00,CLR,,0.00,WeatherDisplay:10.37,2013-01-20 16:45:00,
2013-01-20 11:50:00,49.6,30.2,29.51,SW,227,5.0,8.0,47,0.00,CLR,,0.00,WeatherDisplay:10.37,2013-01-20 16:50:00,
2013-01-20 11:55:00,49.5,30.1,29.51,SW,214,5.0,9.0,47,0.00,CLR,,0.00,WeatherDisplay:10.37,2013-01-20 16:55:00,
2013-01-20 12:00:00,49.2,30.3,29.51,SSW,201,1.0,8.0,48,0.00,CLR,,0.00,WeatherDisplay:10.37,2013-01-20 17:00:00,
2013-01-20 12:05:00,48.9,30.1,29.51,SSW,213,3.0,8.0,48,0.00,CLR,,0.00,WeatherDisplay:10.37,2013-01-20 17:05:00,
2013-01-20 12:10:00,48.6,30.3,29.51,SW,226,0.0,10.0,49,0.00,CLR,,0.00,WeatherDisplay:10.37,2013-01-20 17:10:00,
2013-01-20 12:15:00,48.4,30.1,29.51,WSW,241,2.0,7.0,49,0.00,CLR,,0.00,WeatherDisplay:10.37,2013-01-20 17:15:00,
2013-01-20 12:20:00,48.1,30.3,29.51,WSW,240,2.0,13.0,50,0.00,BKN,,0.00,WeatherDisplay:10.37,2013-01-20 17:20:00,
2013-01-20 12:25:00,47.9,30.1,29.52,WSW,243,2.0,6.0,50,0.00,BKN,,0.00,WeatherDisplay:10.37,2013-01-20 17:25:00,
2013-01-20 12:30:00,47.6,30.3,29.52,SW,230,2.0,7.0,51,0.00,BKN,,0.00,WeatherDisplay:10.37,2013-01-20 17:30:00,
2013-01-20 12:35:00,47.4,30.2,29.52,SW,229,2.0,9.0,51,0.00,BKN,,0.00,WeatherDisplay:10.37,2013-01-20 17:35:00,
2013-01-20 12:40:00,47.2,30.5,29.53,SW,234,6.0,18.0,52,0.00,BKN,,0.00,WeatherDisplay:10.37,2013-01-20 17:40:00,
2013-01-20 12:45:00,47.1,29.9,29.52,WSW,238,6.0,17.0,51,0.00,BKN,,0.00,WeatherDisplay:10.37,2013-01-20 17:45:00,
2013-01-20 12:50:00,47.2,30.5,29.53,SW,235,3.0,13.0,52,0.00,BKN,,0.00,WeatherDisplay:10.37,2013-01-20 17:50:00,
2013-01-20 12:55:00,47.1,30.8,29.53,WSW,237,2.0,8.0,53,0.00,BKN,,0.00,WeatherDisplay:10.37,2013-01-20 17:55:00,
2013-01-20 13:00:00,46.6,30.4,29.54,WSW,257,3.0,6.0,53,0.00,BKN,,0.00,WeatherDisplay:10.37,2013-01-20 18:00:00,
2013-01-20 13:05:00,46.3,31.0,29.54,West,260,2.0,7.0,55,0.00,BKN,,0.00,WeatherDisplay:10.37,2013-01-20 18:05:00,
2013-01-20 13:10:00,45.8,31.0,29.55,WNW,283,2.0,9.0,56,0.00,BKN,,0.00,WeatherDisplay:10.37,2013-01-20 18:10:00,
2013-01-20 13:15:00,45.4,31.0,29.55,WNW,288,5.0,12.0,57,0.00,BKN,,0.00,WeatherDisplay:10.37,2013-01-20 18:15:00,
2013-01-20 13:20:00,45.0,31.1,29.56,West,266,1.0,12.0,58,0.00,BKN,,0.00,WeatherDisplay:10.37,2013-01-20 18:20:00,
2013-01-20 13:25:00,44.7,30.9,29.57,West,273,1.0,6.0,58,0.00,BKN,,0.00,WeatherDisplay:10.37,2013-01-20 18:25:00,
2013-01-20 13:30:00,44.4,30.6,29.57,WNW,287,5.0,13.0,58,0.00,BKN,,0.00,WeatherDisplay:10.37,2013-01-20 18:30:00,
2013-01-20 13:35:00,43.9,29.2,29.57,WSW,247,5.0,12.0,56,0.00,BKN,,0.00,WeatherDisplay:10.37,2013-01-20 18:35:00,
2013-01-20 13:40:00,43.4,29.1,29.58,WSW,238,5.0,9.0,57,0.00,BKN,,0.00,WeatherDisplay:10.37,2013-01-20 18:40:00,
2013-01-20 13:45:00,43.1,28.4,29.58,WSW,253,5.0,8.0,56,0.00,BKN,,0.00,WeatherDisplay:10.37,2013-01-20 18:45:00,
2013-01-20 13:50:00,42.9,26.9,29.58,WSW,238,1.0,10.0,53,0.00,BKN,,0.00,WeatherDisplay:10.37,2013-01-20 18:50:00,
2013-01-20 13:55:00,42.9,26.9,29.57,SW,233,1.0,14.0,53,0.00,BKN,,0.00,WeatherDisplay:10.37,2013-01-20 18:55:00,
2013-01-20 14:00:00,42.9,26.9,29.58,WSW,240,1.0,11.0,53,0.00,BKN,,0.00,WeatherDisplay:10.37,2013-01-20 19:00:00,
2013-01-20 14:05:00,42.9,26.9,29.58,WSW,253,0.0,14.0,53,0.00,BKN,,0.00,WeatherDisplay:10.37,2013-01-20 19:05:00,
2013-01-20 14:10:00,42.9,26.0,29.58,WSW,244,3.0,8.0,51,0.00,BKN,,0.00,WeatherDisplay:10.37,2013-01-20 19:10:00,
2013-01-20 14:15:00,42.9,26.0,29.58,WSW,254,1.0,5.0,51,0.00,BKN,,0.00,WeatherDisplay:10.37,2013-01-20 19:15:00,
2013-01-20 14:20:00,43.0,26.1,29.58,West,279,0.0,14.0,51,0.00,BKN,,0.00,WeatherDisplay:10.37,2013-01-20 19:20:00,
2013-01-20 14:25:00,43.2,26.3,29.58,West,269,1.0,8.0,51,0.00,BKN,,0.00,WeatherDisplay:10.37,2013-01-20 19:25:00,
2013-01-20 14:30:00,43.3,25.4,29.58,SW,236,5.0,13.0,49,0.00,BKN,,0.00,WeatherDisplay:10.37,2013-01-20 19:30:00,
2013-01-20 14:35:00,43.4,25.5,29.59,WSW,251,3.0,7.0,49,0.00,BKN,,0.00,WeatherDisplay:10.37,2013-01-20 19:35:00,
2013-01-20 14:40:00,43.4,24.5,29.59,WSW,238,0.0,6.0,47,0.00,BKN,,0.00,WeatherDisplay:10.37,2013-01-20 19:40:00,
2013-01-20 14:45:00,43.4,24.0,29.59,WSW,247,5.0,12.0,46,0.00,BKN,,0.00,WeatherDisplay:10.37,2013-01-20 19:45:00,
2013-01-20 14:50:00,43.5,23.0,29.59,WSW,254,0.0,7.0,44,0.00,BKN,,0.00,WeatherDisplay:10.37,2013-01-20 19:50:00,
2013-01-20 14:55:00,43.6,20.8,29.59,SW,226,2.0,12.0,40,0.00,BKN,,0.00,WeatherDisplay:10.37,2013-01-20 19:55:00,
2013-01-20 15:00:00,43.6,21.4,29.60,SW,236,2.0,10.0,41,0.00,BKN,,0.00,WeatherDisplay:10.37,2013-01-20 20:00:00,
2013-01-20 15:05:00,43.7,22.1,29.60,WSW,247,2.0,8.0,42,0.00,CLR,,0.00,WeatherDisplay:10.37,2013-01-20 20:05:00,
2013-01-20 15:10:00,43.7,19.7,29.60,SW,236,3.0,9.0,38,0.00,CLR,,0.00,WeatherDisplay:10.37,2013-01-20 20:10:00,
2013-01-20 15:15:00,43.7,19.7,29.61,SW,233,3.0,12.0,38,0.00,CLR,,0.00,WeatherDisplay:10.37,2013-01-20 20:15:00,
2013-01-20 15:20:00,43.7,15.7,29.61,West,267,6.0,12.0,32,0.00,CLR,,0.00,WeatherDisplay:10.37,2013-01-20 20:20:00,
2013-01-20 15:25:00,43.6,16.3,29.61,WSW,255,5.0,13.0,33,0.00,CLR,,0.00,WeatherDisplay:10.37,2013-01-20 20:25:00,
2013-01-20 15:30:00,43.7,15.0,29.61,West,263,3.0,9.0,31,0.00,CLR,,0.00,WeatherDisplay:10.37,2013-01-20 20:30:00,
2013-01-20 15:35:00,43.5,15.5,29.62,West,266,2.0,16.0,32,0.00,CLR,,0.00,WeatherDisplay:10.37,2013-01-20 20:35:00,
2013-01-20 15:40:00,43.1,15.2,29.62,SW,233,5.0,12.0,32,0.00,CLR,,0.00,WeatherDisplay:10.37,2013-01-20 20:40:00,
2013-01-20 15:45:00,42.8,16.3,29.63,SW,235,1.0,14.0,34,0.00,CLR,,0.00,WeatherDisplay:10.37,2013-01-20 20:45:00,
2013-01-20 15:50:00,42.5,15.4,29.63,WNW,290,3.0,20.0,33,0.00,CLR,,0.00,WeatherDisplay:10.37,2013-01-20 20:50:00,
2013-01-20 15:55:00,42.5,13.9,29.64,WNW,299,6.0,12.0,31,0.00,CLR,,0.00,WeatherDisplay:10.37,2013-01-20 20:55:00,
2013-01-20 16:00:00,42.4,14.6,29.64,West,280,2.0,6.0,32,0.00,CLR,,0.00,WeatherDisplay:10.37,2013-01-20 21:00:00,
2013-01-20 16:05:00,42.1,16.4,29.65,West,266,2.0,7.0,35,0.00,CLR,,0.00,WeatherDisplay:10.37,2013-01-20 21:05:00,
2013-01-20 16:10:00,41.7,16.0,29.66,WNW,287,3.0,10.0,35,0.00,CLR,,0.00,WeatherDisplay:10.37,2013-01-20 21:10:00,
2013-01-20 16:15:00,41.3,15.0,29.66,WNW,299,2.0,10.0,34,0.00,CLR,,0.00,WeatherDisplay:10.37,2013-01-20 21:15:00,
2013-01-20 16:20:00,40.9,16.0,29.67,WNW,297,1.0,10.0,36,0.00,CLR,,0.00,WeatherDisplay:10.37,2013-01-20 21:20:00,
2013-01-20 16:25:00,40.5,16.8,29.67,WNW,287,3.0,8.0,38,0.00,CLR,,0.00,WeatherDisplay:10.37,2013-01-20 21:25:00,
2013-01-20 16:30:00,40.2,16.0,29.67,WNW,284,6.0,9.0,37,0.00,CLR,,0.00,WeatherDisplay:10.37,2013-01-20 21:30:00,
2013-01-20 16:35:00,40.0,17.0,29.68,West,267,2.0,9.0,39,0.00,CLR,,0.00,WeatherDisplay:10.37,2013-01-20 21:35:00,
2013-01-20 16:40:00,39.7,17.3,29.69,West,277,1.0,7.0,40,0.00,CLR,,0.00,WeatherDisplay:10.37,2013-01-20 21:40:00,
2013-01-20 16:45:00,39.3,17.0,29.69,West,278,3.0,9.0,40,0.00,CLR,,0.00,WeatherDisplay:10.37,2013-01-20 21:45:00,
2013-01-20 16:50:00,39.1,17.4,29.70,WNW,283,0.0,4.0,41,0.00,CLR,,0.00,WeatherDisplay:10.37,2013-01-20 21:50:00,
2013-01-20 16:55:00,38.7,17.6,29.71,NW,306,3.0,9.0,42,0.00,CLR,,0.00,WeatherDisplay:10.37,2013-01-20 21:55:00,
2013-01-20 17:00:00,38.3,17.7,29.71,WNW,296,3.0,12.0,43,0.00,CLR,,0.00,WeatherDisplay:10.37,2013-01-20 22:00:00,
2013-01-20 17:05:00,37.9,16.8,29.72,WNW,282,6.0,18.0,42,0.00,CLR,,0.00,WeatherDisplay:10.37,2013-01-20 22:05:00,
2013-01-20 17:10:00,37.7,17.7,29.71,WNW,287,1.0,14.0,44,0.00,CLR,,0.00,WeatherDisplay:10.37,2013-01-20 22:10:00,
2013-01-20 17:15:00,37.4,17.9,29.72,WNW,299,3.0,8.0,45,0.00,CLR,,0.00,WeatherDisplay:10.37,2013-01-20 22:15:00,
2013-01-20 17:20:00,37.1,17.7,29.72,WNW,284,3.0,13.0,45,0.00,CLR,,0.00,WeatherDisplay:10.37,2013-01-20 22:20:00,
2013-01-20 17:25:00,36.8,18.0,29.72,West,268,2.0,12.0,46,0.00,CLR,,0.00,WeatherDisplay:10.37,2013-01-20 22:25:00,
2013-01-20 17:30:00,36.6,17.7,29.73,West,281,5.0,18.0,46,0.00,CLR,,0.00,WeatherDisplay:10.37,2013-01-20 22:30:00,
2013-01-20 17:35:00,36.3,17.0,29.73,WNW,292,2.0,12.0,45,0.00,CLR,,0.00,WeatherDisplay:10.37,2013-01-20 22:35:00,
2013-01-20 17:40:00,36.1,16.8,29.74,WNW,289,2.0,14.0,45,0.00,CLR,,0.00,WeatherDisplay:10.37,2013-01-20 22:40:00,
2013-01-20 17:45:00,35.9,17.6,29.74,West,269,1.0,4.0,47,0.00,CLR,,0.00,WeatherDisplay:10.37,2013-01-20 22:45:00,
2013-01-20 17:50:00,35.6,16.8,29.74,West,266,3.0,8.0,46,0.00,CLR,,0.00,WeatherDisplay:10.37,2013-01-20 22:50:00,
2013-01-20 17:55:00,35.5,16.7,29.74,West,268,1.0,12.0,46,0.00,CLR,,0.00,WeatherDisplay:10.37,2013-01-20 22:55:00,
2013-01-20 18:00:00,35.3,16.5,29.74,West,273,5.0,15.0,46,0.00,CLR,,0.00,WeatherDisplay:10.37,2013-01-20 23:00:00,
2013-01-20 18:05:00,35.1,16.9,29.75,West,261,3.0,12.0,47,0.00,CLR,,0.00,WeatherDisplay:10.37,2013-01-20 23:05:00,
2013-01-20 18:10:00,34.9,16.2,29.75,WSW,255,1.0,12.0,46,0.00,CLR,,0.00,WeatherDisplay:10.37,2013-01-20 23:10:00,
2013-01-20 18:15:00,34.6,16.4,29.75,West,274,5.0,12.0,47,0.00,CLR,,0.00,WeatherDisplay:10.37,2013-01-20 23:15:00,
2013-01-20 18:20:00,34.4,15.7,29.75,WNW,289,2.0,8.0,46,0.00,CLR,,0.00,WeatherDisplay:10.37,2013-01-20 23:20:00,
2013-01-20 18:25:00,34.2,16.0,29.76,NW,316,2.0,9.0,47,0.00,CLR,,0.00,WeatherDisplay:10.37,2013-01-20 23:25:00,
2013-01-20 18:30:00,34.0,16.3,29.77,WNW,294,5.0,13.0,48,0.00,CLR,,0.00,WeatherDisplay:10.37,2013-01-20 23:30:00,
2013-01-20 18:35:00,33.8,16.2,29.77,West,271,1.0,6.0,48,0.00,CLR,,0.00,WeatherDisplay:10.37,2013-01-20 23:35:00,
2013-01-20 18:40:00,33.6,16.0,29.77,West,281,1.0,7.0,48,0.00,CLR,,0.00,WeatherDisplay:10.37,2013-01-20 23:40:00,
2013-01-20 18:45:00,33.4,16.2,29.78,West,271,2.0,7.0,49,0.00,CLR,,0.00,WeatherDisplay:10.37,2013-01-20 23:45:00,
2013-01-20 18:50:00,33.2,16.1,29.78,West,266,3.0,10.0,49,0.00,CLR,,0.00,WeatherDisplay:10.37,2013-01-20 23:50:00,
2013-01-20 18:55:00,33.0,16.4,29.78,West,260,5.0,9.0,50,0.00,CLR,,0.00,WeatherDisplay:10.37,2013-01-20 23:55:00,
2013-01-20 19:00:00,32.8,16.1,29.78,West,263,3.0,5.0,50,0.00,CLR,,0.00,WeatherDisplay:10.37,2013-01-21 00:00:00,
2013-01-20 19:05:00,32.5,15.4,29.79,West,264,1.0,4.0,49,0.00,CLR,,0.00,WeatherDisplay:10.37,2013-01-21 00:05:00,
2013-01-20 19:10:00,32.3,15.7,29.79,WSW,239,2.0,7.0,50,0.00,CLR,,0.00,WeatherDisplay:10.37,2013-01-21 00:10:00,
2013-01-20 19:15:00,32.1,15.1,29.79,West,261,6.0,16.0,49,0.00,CLR,,0.00,WeatherDisplay:10.37,2013-01-21 00:15:00,
2013-01-20 19:20:00,31.9,15.3,29.80,WSW,255,3.0,6.0,50,0.00,CLR,,0.00,WeatherDisplay:10.37,2013-01-21 00:20:00,
2013-01-20 19:25:00,31.7,15.2,29.80,West,277,3.0,8.0,50,0.00,CLR,,0.00,WeatherDisplay:10.37,2013-01-21 00:25:00,
2013-01-20 19:30:00,31.5,14.5,29.80,West,270,1.0,6.0,49,0.00,CLR,,0.00,WeatherDisplay:10.37,2013-01-21 00:30:00,
2013-01-20 19:35:00,31.4,14.4,29.80,West,264,1.0,5.0,49,0.00,CLR,,0.00,WeatherDisplay:10.37,2013-01-21 00:35:00,
2013-01-20 19:40:00,31.4,14.4,29.80,WSW,254,1.0,3.0,49,0.00,CLR,,0.00,WeatherDisplay:10.37,2013-01-21 00:40:00,
2013-01-20 19:55:00,30.6,14.1,29.82,WSW,251,3.0,12.0,50,0.00,CLR,,0.00,WeatherDisplay:10.37,2013-01-21 00:55:00,
2013-01-20 20:00:00,30.5,13.1,29.82,WNW,287,2.0,8.0,48,0.00,CLR,,0.00,WeatherDisplay:10.37,2013-01-21 01:00:00,
2013-01-20 20:05:00,30.4,12.5,29.82,WSW,238,1.0,10.0,47,0.00,CLR,,0.00,WeatherDisplay:10.37,2013-01-21 01:05:00,
2013-01-20 20:10:00,30.3,12.5,29.82,SW,225,1.0,5.0,47,0.00,CLR,,0.00,WeatherDisplay:10.37,2013-01-21 01:10:00,
2013-01-20 20:15:00,30.2,12.4,29.83,West,259,2.0,10.0,47,0.00,CLR,,0.00,WeatherDisplay:10.37,2013-01-21 01:15:00,
2013-01-20 20:20:00,30.1,12.7,29.83,WNW,285,1.0,8.0,48,0.00,CLR,,0.00,WeatherDisplay:10.37,2013-01-21 01:20:00,
2013-01-20 20:25:00,29.9,12.6,29.83,West,278,0.0,6.0,48,0.00,CLR,,0.00,WeatherDisplay:10.37,2013-01-21 01:25:00,
2013-01-20 20:30:00,29.7,12.9,29.83,West,271,1.0,6.0,49,0.00,CLR,,0.00,WeatherDisplay:10.37,2013-01-21 01:30:00,
2013-01-20 20:35:00,29.6,12.3,29.83,WSW,252,3.0,6.0,48,0.00,CLR,,0.00,WeatherDisplay:10.37,2013-01-21 01:35:00,
2013-01-20 20:40:00,29.6,13.2,29.83,SW,217,0.0,5.0,50,0.00,CLR,,0.00,WeatherDisplay:10.37,2013-01-21 01:40:00,
2013-01-20 20:45:00,29.5,12.2,29.84,SW,230,0.0,9.0,48,0.00,CLR,,0.00,WeatherDisplay:10.37,2013-01-21 01:45:00,
2013-01-20 20:55:00,29.4,12.1,29.84,WSW,242,1.0,5.0,48,0.00,CLR,,0.00,WeatherDisplay:10.37,2013-01-21 01:55:00,
2013-01-20 21:00:00,29.3,12.5,29.85,SW,219,0.0,2.0,49,0.00,CLR,,0.00,WeatherDisplay:10.37,2013-01-21 02:00:00,
2013-01-20 21:05:00,29.2,12.4,29.85,SW,231,2.0,6.0,49,0.00,CLR,,0.00,WeatherDisplay:10.37,2013-01-21 02:05:00,
2013-01-20 21:10:00,29.1,12.3,29.85,SW,224,1.0,7.0,49,0.00,CLR,,0.00,WeatherDisplay:10.37,2013-01-21 02:10:00,
2013-01-20 21:15:00,29.1,12.3,29.85,WSW,252,1.0,6.0,49,0.00,CLR,,0.00,WeatherDisplay:10.37,2013-01-21 02:15:00,
2013-01-20 21:20:00,29.0,12.7,29.85,West,278,0.0,3.0,50,0.00,CLR,,0.00,WeatherDisplay:10.37,2013-01-21 02:20:00,
2013-01-20 21:25:00,28.8,12.5,29.85,SW,228,3.0,8.0,50,0.00,CLR,,0.00,WeatherDisplay:10.37,2013-01-21 02:25:00,
2013-01-20 21:35:00,28.9,12.5,29.86,WNW,284,2.0,6.0,50,0.00,CLR,,0.00,WeatherDisplay:10.37,2013-01-21 02:35:00,
2013-01-20 21:40:00,28.8,13.0,29.86,WNW,284,3.0,8.0,51,0.00,CLR,,0.00,WeatherDisplay:10.37,2013-01-21 02:40:00,
2013-01-20 21:45:00,28.8,13.4,29.86,WNW,291,0.0,2.0,52,0.00,CLR,,0.00,WeatherDisplay:10.37,2013-01-21 02:45:00,
2013-01-20 21:55:00,28.8,12.0,29.87,WNW,288,2.0,10.0,49,0.00,CLR,,0.00,WeatherDisplay:10.37,2013-01-21 02:55:00,
2013-01-20 22:00:00,28.8,11.6,29.87,WNW,294,3.0,7.0,48,0.00,CLR,,0.00,WeatherDisplay:10.37,2013-01-21 03:00:00,
2013-01-20 22:05:00,28.8,12.0,29.87,NW,314,1.0,5.0,49,0.00,CLR,,0.00,WeatherDisplay:10.37,2013-01-21 03:05:00,
2013-01-20 22:15:00,28.7,12.4,29.88,WNW,285,0.0,2.0,50,0.00,CLR,,0.00,WeatherDisplay:10.37,2013-01-21 03:15:00,
2013-01-20 22:20:00,28.6,11.8,29.89,NW,319,2.0,8.0,49,0.00,SCT,,0.00,WeatherDisplay:10.37,2013-01-21 03:20:00,
2013-01-20 22:25:00,28.5,10.8,29.88,West,263,3.0,7.0,47,0.00,SCT,,0.00,WeatherDisplay:10.37,2013-01-21 03:25:00,
2013-01-20 22:30:00,28.4,11.2,29.89,West,267,1.0,8.0,48,0.00,SCT,,0.00,WeatherDisplay:10.37,2013-01-21 03:30:00,
2013-01-20 22:35:00,28.4,10.7,29.89,WNW,286,0.0,8.0,47,0.00,SCT,,0.00,WeatherDisplay:10.37,2013-01-21 03:35:00,
2013-01-20 22:40:00,28.3,11.1,29.89,WNW,291,0.0,7.0,48,0.00,SCT,,0.00,WeatherDisplay:10.37,2013-01-21 03:40:00,
2013-01-20 22:45:00,28.2,11.0,29.89,WNW,300,1.0,8.0,48,0.00,SCT,,0.00,WeatherDisplay:10.37,2013-01-21 03:45:00,
2013-01-20 22:50:00,28.1,11.4,29.89,NW,308,1.0,3.0,49,0.00,SCT,,0.00,WeatherDisplay:10.37,2013-01-21 03:50:00,
2013-01-20 23:00:00,27.9,11.6,29.89,WNW,284,0.0,3.0,50,0.00,SCT,,0.00,WeatherDisplay:10.37,2013-01-21 04:00:00,
2013-01-20 23:05:00,27.9,11.2,29.89,WNW,303,2.0,7.0,49,0.00,SCT,,0.00,WeatherDisplay:10.37,2013-01-21 04:05:00,
2013-01-20 23:10:00,27.8,11.1,29.90,WNW,292,2.0,8.0,49,0.00,SCT,,0.00,WeatherDisplay:10.37,2013-01-21 04:10:00,
2013-01-20 23:15:00,27.8,11.5,29.89,WNW,284,1.0,4.0,50,0.00,SCT,,0.00,WeatherDisplay:10.37,2013-01-21 04:15:00,
2013-01-20 23:20:00,27.7,11.5,29.89,WNW,292,0.0,4.0,50,0.00,OVC,,0.00,WeatherDisplay:10.37,2013-01-21 04:20:00,
2013-01-20 23:30:00,27.6,11.8,29.89,WNW,300,2.0,6.0,51,0.00,OVC,,0.00,WeatherDisplay:10.37,2013-01-21 04:30:00,
2013-01-20 23:35:00,27.5,12.2,29.90,WNW,296,2.0,6.0,52,0.00,OVC,,0.00,WeatherDisplay:10.37,2013-01-21 04:35:00,
2013-01-20 23:40:00,27.4,12.5,29.90,WSW,255,0.0,10.0,53,0.00,OVC,,0.00,WeatherDisplay:10.37,2013-01-21 04:40:00,
2013-01-20 23:45:00,27.4,12.5,29.90,SW,228,1.0,6.0,53,0.00,OVC,,0.00,WeatherDisplay:10.37,2013-01-21 04:45:00,
2013-01-20 23:50:00,27.4,12.9,29.90,West,266,2.0,7.0,54,0.00,OVC,,0.00,WeatherDisplay:10.37,2013-01-21 04:50:00,
2013-01-20 23:55:00,27.4,12.9,29.90,West,271,5.0,9.0,54,0.00,OVC,,0.00,WeatherDisplay:10.37,2013-01-21 04:55:00,